Flag for Norway Weather past 2 weeks in Halden, Norway

Now
53 °F

Cool.


Feels Like: 49 °F
Forecast: 50 / 55 °F
Wind: 14 mph from Southwest

Location: Stromtangen Fyr

Current Time: Oct 25, 2014 at 9:15:27 PM

Latest Report: Oct 25, 2014 at 8:00 PM


Visibility: N/A

Pressure: 29.85 "Hg

Humidity: 77%

Dew point: 46 °F

Location of HaldenLocation

Historic Weather in Halden — Graph

°F

Halden temperature yesterday

Maximum temperature yesterday: 54 °F (at 3:00 PM)
Minimum temperature yesterday: 53 °F (at 12:00 AM)
Average temperature yesterday: 54 °F

Past Weeks' High & Low Weather Summary

 TemperatureHumidityPressure
High57 °F (Oct 10, 8:00 PM)93% (Oct 19, 4:00 AM)30.10 "Hg (Oct 19, 4:00 AM)
Low36 °F (Oct 16, 7:00 PM)70% (Oct 13, 12:00 AM)29.29 "Hg (Oct 20, 4:00 AM)
Average49 °F86%29.81 "Hg
* Reported Oct 10 8:00 PM — Oct 25 8:00 PM, Halden, Weather by CustomWeather, © 2014

Note: Actual official high and low records may vary slightly from our data, if they occured in-between our weather recording intervals... More about our weather records

Advertising

Halden weather history for previous 24 hours

 ConditionsComfort  
Time TempWeatherWind HumidityBarometerVisibility
8:00 PM
Oct 25
53 °FCool.14 mph77%29.85 "HgN/A
7:00 PM53 °FCool.13 mph78%29.85 "HgN/A
6:00 PM53 °FCool.13 mph77%29.84 "HgN/A
5:00 PM53 °FCool.13 mph76%29.84 "HgN/A
4:00 PM53 °FCool.12 mph75%29.85 "HgN/A
3:00 PM54 °FCool.10 mph79%29.84 "HgN/A
2:00 PM54 °FCool.9 mph79%29.85 "HgN/A
1:00 PM53 °FCool.8 mph81%29.85 "HgN/A
12:00 PM53 °FCool.8 mph80%29.85 "HgN/A
11:00 AM53 °FCool.8 mph79%29.84 "HgN/A
10:00 AM52 °FCool.9 mph81%29.82 "HgN/A
9:00 AM52 °FCool.9 mph83%29.80 "HgN/A
8:00 AM53 °FCool.10 mph85%29.78 "HgN/A
7:00 AM53 °FCool.9 mph90%29.76 "HgN/A
6:00 AM53 °FCool.8 mph91%29.75 "HgN/A
5:00 AM54 °FCool.14 mph91%29.75 "HgN/A
4:00 AM53 °FCool.15 mph91%29.75 "HgN/A
3:00 AM54 °FCool.14 mph91%29.77 "HgN/A
2:00 AM54 °FCool.12 mph91%29.78 "HgN/A
1:00 AM54 °FCool.14 mph91%29.79 "HgN/A
12:00 AM54 °FCool.14 mph90%29.80 "HgN/A
11:00 PM
Oct 24
54 °FCool.14 mph91%29.81 "HgN/A
10:00 PM54 °FCool.14 mph90%29.82 "HgN/A
9:00 PM54 °FCool.13 mph91%29.83 "HgN/A
Weather by CustomWeather, © 2014

See weather overviewHow to use our weather pages